Regional Weather Roundup
Issued by NWS Northern Indiana

Home | Current Version | Previous Version | Text Only | Print | Product List | Glossary On
Versions: 1 2 3 4 5 6 7 8 9 10 11 12 13 14 15 16 17 18 19 20 21 22 23 24 25 26 27 28 29 30 31 32 33 34 35 36 37 38 39 40 41 42 43 44 45 46 47 48 49 50
000
ASUS43 KIWX 300410
RWRIWX

KIWX WEATHER ROUNDUP
NATIONAL WEATHER SERVICE NORTHERN INDIANA
1200 AM EDT SAT AUG 30 2014

NOTE: "FAIR" INDICATES FEW OR NO CLOUDS BELOW 12,000 FEET WITH NO
SIGNIFICANT WEATHER AND/OR OBSTRUCTIONS TO VISIBILITY.

* THESE STATIONS ARE NOT UNDER NWS QUALITY CONTROL. THEY ALSO MAY NOT
  REPORT WEATHER SUCH AS PRECIPITATION OR FOG.

INZ001>027-300500-
NORTHERN INDIANA

CITY           SKY/WX    TMP DP  RH WIND       PRES   REMARKS
GARY*          PTCLDY    74  69  85 SE8       29.91F
VALPARAISO     MOCLDY    70  67  90 SE6       29.95S
MICHIGAN CITY* CLOUDY    70  68  94 S5        29.94F
LAPORTE*       CLOUDY    69  67  94 CALM      29.96S
KNOX*          CLOUDY    69  66  89 SE6       29.95S
SOUTH BEND     CLOUDY    70  66  87 SE7       29.96F
GOSHEN         CLOUDY    73  69  87 E3        29.99F
MONTICELLO*    PTCLDY    70  69  98 CALM      29.95S
LOGANSPORT*    MOCLDY    70  68  94 SE5       29.98R
ROCHESTER*     CLOUDY    72  72 100 CALM      29.98S FOG
WARSAW*        CLOUDY    75  68  78 CALM      29.99S
ANGOLA*        CLEAR     73  64  73 SE7       30.01S
FORT WAYNE     MOCLDY    72  66  81 SE7       30.01S
HUNTINGTON*    MOCLDY    73  68  82 S5        29.99F
PERU/GRISSOM   MOCLDY    73  73 100 SE6       29.98R
MARION*        CLOUDY    73  66  78 SE7       30.00S

$$
INZ028>050-300500-
CENTRAL INDIANA

CITY           SKY/WX    TMP DP  RH WIND       PRES   REMARKS
LAFAYETTE      CLEAR     71  69  93 S5        29.95S
KOKOMO*        MOCLDY    72  68  88 S6        29.99S
MUNCIE*        MOCLDY    76  67  73 SE8       30.01S
INDIANAPOLIS   PTCLDY    76  65  68 S9        29.98R

$$
MIZ043>046-050>051-056>058-064>065-071>073-077>080-300500-
SOUTHWEST LOWER MICHIGAN

CITY           SKY/WX    TMP DP  RH WIND       PRES   REMARKS
BATTLE CREEK   MOCLDY    74  66  76 SE10      29.99F
BENTON HARBOR  LGT RAIN  71  67  87 SE12      29.93F
COLDWATER*     MOCLDY    75  66  75 SE6       30.00F
HILLSDALE*     PTCLDY    71  67  85 CALM      30.03S
HOLLAND        PTCLDY    76  69  79 S10       29.94F THUNDER
GRAND RAPIDS   MOCLDY    73  71  93 S9        29.96S
KALAMAZOO      CLOUDY    74  67  78 SW20      30.02R
STURGIS*       CLOUDY    73  66  78 SW15G22   30.02R
THREE RIVERS*  LGT RAIN  75  67  77 SW9G22    30.01R

$$
OHZ001>008-015>018-024>025-300500-
NORTHWEST OHIO

CITY           SKY/WX    TMP DP  RH WIND       PRES   REMARKS
WAUSEON*       FAIR      70  64  83 SE6       30.03S
DEFIANCE       PTCLDY    75  63  66 SE7       30.02S
FINDLAY        CLEAR     72  62  71 SE8       30.03S
TOLEDO EXPRESS PTCLDY    69  63  81 CALM      30.02S
TOLEDO METCALF CLEAR     69  62  78 SE6       30.04R
LIMA           PTCLDY    74  64  71 SE8       30.05R

$$
&&


USA.gov is the U.S. government's official web portal to all federal, state and local government web resources and services.